Tracking 30703 objects as of 12-Jun-2025
HD Live streaming from Space Station
objects crossing your sky now

COSMOS 1375 DEB

Track COSMOS 1375 DEB now!
10-day predictions


NORAD ID: 16210
Int'l Code: 1982-055M
Perigee: 963.0 km
Apogee: 1,017.8 km
Inclination: 65.8 °
Period: 104.8 minutes
Semi major axis: 7361 km
RCS: 0.1231 m2 (medium)
Launch date: June 6, 1982
Source: Commonwealth of Independent States (former USSR) (CIS)
Launch site: PLESETSK MISSILE AND SPACE COMPLEX (PKMTR)

Note: This is SATELLITE DEBRIS
Your satellite tracking list
Your tracking list is empty




NASA's NSSDC Master Catalog

Two Line Element Set (TLE):
1 16210U 82055M   25162.69445909 -.00000060  00000-0  21300-4 0  9999
2 16210  65.8347 274.5729 0037202 266.4538 204.2063 13.74558289988980
Source of the keplerian elements: AFSPC